RH
55 60 68 68 68 82 80 78 87 77 77 76 97 100 99 100 100 95 100 97 85 82 80 83 85 84 82 82 82 80 72 68 61 53 47 42 36 31 28 28 30 73 75 76
68 60 60 68 68 68 89 84 77 73 74 86 78 82 83 90 68 95 84 86 86 89 89 88 90 88 85 88 87 88 83 79 73 63 54 46 40 34 29 29 33 82 85 81
63 53 56 56 70 77 84 93 86 81 86 96 72 94 60 72 100 100 100 96 97 99 98 98 96 95 93 94 98 95 93 92 90 79 65 57 45 35 31 30 39 88 90 88
70 61 50 58 48 50 49 48 80 80 82 83 88 77 60 100 97 97 97 99 98 98 98 97 98 100 97 100 100 99 97 97 98 94 79 66 51 39 35 33 45 91 96 99
66 48 44 61 58 52 64 49 70 66 83 95 79 61 56 78 78 86 91 96 97 100 100 100 100 99 99 100 100 100 98 98 100 100 93 77 60 46 40 37 52 93 96 96
64 68 54 78 61 54 67 93 84 82 87 90 88 53 48 55 77 82 91 98 98 97 100 100 99 98 99 99 99 99 96 97 100 100 99 89 69 51 46 47 64 95 98 96
66 63 60 62 63 59 83 79 70 94 94 91 75 66 73 78 92 100 100 100 99 98 100 100 100 98 99 100 100 100 100 99 100 100 100 97 79 64 56 57 70 96 97 98
68 68 62 64 66 95 85 60 88 91 91 83 53 57 66 86 96 96 92 91 94 94 99 100 100 99 100 100 100 100 100 100 100 100 100 97 84 72 65 64 62 95 95 97
76 75 69 74 85 84 52 81 88 88 84 71 45 56 63 84 86 91 94 94 98 99 98 100 100 100 100 100 99 99 100 100 100 100 100 97 86 77 73 69 64 96 96 96
76 94 86 87 62 48 73 91 89 88 77 56 45 57 63 90 89 93 93 93 97 95 97 99 100 100 100 100 100 100 100 100 100 100 100 100 94 83 74 70 63 93 96 96
81 91 60 48 46 56 82 93 90 83 85 52 47 57 68 89 90 95 94 96 98 99 99 100 100 100 100 99 98 99 99 100 100 100 100 100 94 87 78 71 64 73 96 96
100 53 46 50 52 69 87 93 92 74 80 62 51 55 75 92 95 95 92 97 96 99 100 100 100 100 100 100 100 98 100 99 100 100 100 100 100 97 84 81 81 87 96 97
45 46 49 47 50 70 89 91 90 75 77 68 52 54 83 91 96 97 100 100 99 96 97 100 100 100 100 100 100 99 100 98 100 100 100 100 100 100 98 86 85 85 83 87
52 49 47 44 49 71 89 91 88 75 78 76 52 54 83 93 100 100 99 96 95 96 98 100 100 100 100 100 100 99 100 100 100 100 100 100 100 100 100 100 100 100 86 79
61 52 49 45 50 74 88 90 90 77 81 87 58 54 84 94 97 98 96 94 96 97 100 100 91 100 98 100 100 98 100 98 99 99 100 100 100 100 100 100 100 100 100 93
71 69 54 47 49 70 86 91 91 81 83 90 68 55 82 95 92 95 93 96 89 87 92 95 95 95 100 98 96 98 100 100 100 100 99 99 100 99 100 100 100 100 100 100
75 78 74 59 50 67 86 91 90 81 80 88 82 52 71 94 92 94 99 97 96 95 96 95 100 91 100 96 93 97 97 99 100 100 99 98 99 100 100 100 100 100 100 100
79 80 84 77 59 57 81 90 89 86 78 84 91 53 59 88 88 87 90 90 97 100 100 100 97 93 100 95 97 99 98 96 97 97 98 98 99 98 98 100 100 100 100 100
81 85 86 88 78 58 58 84 88 87 78 82 91 72 55 74 88 85 88 90 90 89 99 98 92 97 97 94 99 100 97 94 94 94 93 96 95 94 93 91 91 91 93 94
82 87 90 91 89 81 60 64 87 88 82 78 90 93 54 61 87 91 90 94 93 90 85 92 94 97 94 93 95 100 100 95 89 77 75 81 84 88 88 88 87 86 84 83
85 88 90 92 91 91 87 64 71 89 90 78 87 94 72 58 61 81 88 92 95 99 93 81 85 94 93 94 95 98 98 98 98 94 83 66 59 59 67 76 81 82 81 81
82 84 87 91 94 95 96 90 67 74 89 84 82 92 92 56 62 66 80 86 92 98 93 89 83 80 83 92 96 98 97 95 96 97 93 90 89 86 71 56 49 49 57 70
58 63 71 82 94 98 97 98 90 68 76 89 83 94 96 86 55 63 72 88 92 90 89 90 88 84 85 83 84 97 98 95 94 94 95 94 94 94 94 94 92 83 60 45
50 52 57 62 72 92 99 98 98 87 67 78 85 86 97 97 77 54 58 57 72 84 84 86 88 83 75 74 84 84 82 95 95 93 96 96 95 96 97 96 96 94 81 49
51 52 50 52 61 73 90 99 100 99 86 68 83 85 91 96 96 77 59 66 65 65 79 82 79 82 80 73 65 67 87 77 86 95 97 94 95 96 96 97 98 96 67 51
51 53 54 53 53 59 76 92 100 100 100 83 75 87 88 94 95 95 88 63 64 67 63 62 72 75 74 72 67 63 61 71 82 76 98 99 99 99 98 97 98 97 74 56
63 62 61 61 58 56 61 83 99 100 100 99 82 88 94 95 95 95 95 94 82 64 64 66 62 60 66 68 65 62 58 55 60 80 71 99 100 100 98 98 100 100 99 60
Wind_Speed
18 18 19 22 18 17 16 19 22 27 26 27 28 28 36 34 34 33 31 35 37 37 36 36 36 34 34 33 33 34 33 32 31 30 28 25 24 25 27 27 26 27 29 32
19 19 15 17 19 19 16 14 18 21 25 25 34 34 34 34 34 31 36 36 37 37 36 36 36 35 35 35 34 35 34 31 29 27 26 24 22 22 24 25 25 26 28 31
16 12 19 19 10 9 12 12 15 22 27 28 34 34 34 32 26 35 37 38 39 38 38 38 36 36 36 35 35 33 30 27 26 25 24 22 21 21 22 22 23 24 27 29
16 17 11 7 17 16 13 19 20 26 22 28 32 34 31 19 32 36 37 38 38 37 37 35 36 35 36 35 32 30 27 26 24 24 23 20 19 19 19 19 19 23 24 25
8 13 21 19 13 12 17 35 19 10 27 31 32 32 22 25 28 31 33 35 35 34 35 35 35 35 36 34 31 28 26 25 24 23 22 18 17 17 17 17 16 21 22 23
10 13 9 5 15 15 28 11 12 25 35 34 33 32 30 28 27 29 31 32 33 32 33 33 34 35 36 35 31 28 27 25 23 22 20 17 15 15 15 15 14 20 18 17
17 19 14 18 18 19 10 17 31 34 32 31 31 29 33 31 30 31 33 33 32 31 32 33 34 35 36 35 30 29 26 25 23 21 20 16 13 13 13 13 15 16 15 13
7 8 10 11 18 17 27 32 30 30 28 29 27 27 29 29 30 32 33 31 30 31 31 31 33 35 36 33 29 27 25 25 23 20 18 15 12 12 12 11 12 15 14 11
8 9 20 27 25 27 31 28 28 28 27 28 25 25 27 26 28 30 31 32 30 31 32 30 32 33 35 32 28 27 25 24 24 19 17 14 12 11 11 11 9 13 12 11
19 12 19 25 27 27 26 25 25 25 26 26 23 23 25 25 27 30 30 30 30 30 31 32 32 32 32 30 27 28 25 24 23 19 17 14 12 10 11 10 9 11 10 11
19 17 19 24 27 26 24 23 23 22 24 24 22 21 23 23 27 29 28 29 29 30 31 32 32 31 30 28 27 27 26 24 22 21 18 15 13 10 10 9 9 9 9 9
12 20 22 23 24 24 22 21 22 22 19 19 21 20 21 22 26 27 27 28 27 27 29 31 32 30 29 28 26 25 26 23 24 21 17 17 16 13 10 9 9 8 7 8
18 19 20 23 23 22 20 20 20 20 21 19 17 19 20 21 24 26 26 26 26 27 29 31 31 29 27 27 25 24 23 23 22 21 19 18 16 15 13 10 10 10 9 10
17 19 20 22 21 20 19 18 18 18 20 20 17 18 18 20 22 24 25 25 25 26 27 29 28 27 25 26 25 24 24 22 23 22 21 20 18 17 17 16 14 13 12 12
17 18 20 21 20 19 18 18 17 17 18 19 18 17 16 17 20 22 24 24 24 25 25 26 25 26 26 25 23 24 24 23 22 20 20 20 19 18 17 17 16 16 14 15
16 18 19 22 21 19 19 19 18 17 18 18 16 15 14 15 18 20 23 25 25 25 26 26 26 25 26 24 21 21 22 22 21 19 19 19 19 18 17 16 16 16 16 18
16 17 19 21 21 20 19 19 18 17 16 17 16 14 13 12 15 18 20 22 24 25 25 26 25 24 25 23 23 22 20 20 20 18 19 19 19 18 17 16 15 15 16 16
17 17 18 18 19 19 18 18 18 17 16 16 16 14 13 12 13 15 17 19 21 22 22 21 21 23 24 23 23 23 22 20 19 18 18 17 18 17 16 15 15 15 14 14
16 17 17 17 18 19 19 17 17 17 16 16 16 15 13 12 12 14 16 18 20 20 20 19 20 22 22 22 23 23 22 22 20 18 17 16 15 15 15 15 14 14 14 14
16 16 17 17 17 17 18 19 18 18 16 16 16 15 14 13 12 12 14 17 19 22 23 22 21 21 20 21 22 22 22 22 21 20 19 18 17 16 15 15 14 13 13 12
16 16 17 17 17 17 18 18 18 18 18 16 16 15 13 13 13 10 11 13 14 16 19 20 21 21 21 21 21 21 20 20 21 20 20 20 19 18 17 16 15 14 12 11
16 17 18 18 17 18 17 17 18 17 17 17 17 16 14 12 13 13 11 11 12 13 15 17 19 20 21 22 21 20 20 20 20 20 19 19 19 19 19 18 17 17 15 13
17 17 17 18 18 17 17 17 17 17 16 15 15 17 17 14 11 11 12 12 11 12 13 14 16 17 19 20 20 21 20 20 19 19 19 19 20 19 19 19 18 18 17 16
17 18 18 17 17 17 17 17 16 16 16 15 14 13 14 15 15 12 12 12 11 12 11 12 13 14 16 18 19 19 20 20 19 19 19 19 19 19 19 19 19 18 19 18
16 17 17 17 17 17 17 17 16 16 17 16 16 15 14 13 13 12 12 12 12 12 12 12 12 13 14 15 17 18 19 19 20 20 19 18 18 18 19 19 19 20 21 18
17 17 17 17 18 17 17 17 16 16 16 16 15 14 14 14 14 14 13 12 12 12 12 12 12 12 12 13 14 15 17 18 19 20 19 18 17 17 18 19 19 19 20 18
18 18 18 18 18 18 17 16 16 15 15 14 14 14 13 13 13 13 13 14 13 12 12 12 12 12 12 12 12 13 14 16 16 17 19 18 16 16 16 18 18 17 18 18
Wind_Direction
276 284 289 284 279 286 274 274 276 294 297 309 313 314 319 320 321 323 327 327 330 330 330 330 329 327 325 324 322 318 314 310 305 299 292 286 280 275 274 278 276 282 278 268
289 295 276 281 283 277 278 285 284 292 295 305 299 310 321 324 324 329 330 329 331 333 333 334 332 330 329 327 324 321 318 315 309 303 295 289 282 276 276 278 275 284 282 272
288 296 300 290 244 265 281 288 296 296 303 300 314 320 330 328 332 321 329 333 335 335 337 336 334 332 331 330 327 323 321 318 314 308 300 295 286 278 275 276 273 285 281 272
285 305 270 261 299 301 298 307 306 295 292 310 319 324 335 342 311 325 332 334 335 336 336 336 335 333 333 334 331 327 326 321 316 310 306 300 289 280 278 278 272 284 283 278
266 291 287 278 284 318 321 322 310 305 315 320 323 323 337 314 325 328 331 333 334 336 338 338 335 335 336 338 336 332 331 325 320 313 308 302 292 285 282 282 275 290 284 273
266 288 285 274 302 312 329 313 306 313 318 320 324 324 330 330 332 335 336 337 337 340 341 338 339 339 341 342 340 339 336 331 326 321 314 309 297 289 286 283 285 290 291 278
258 265 273 280 293 309 318 313 309 311 315 318 322 322 327 334 338 338 339 340 340 342 343 343 343 343 344 343 341 341 337 335 332 327 321 315 306 294 288 282 283 297 307 292
258 271 265 274 299 308 305 310 308 310 315 318 322 327 330 334 336 339 340 343 343 345 347 347 348 346 346 345 344 342 340 336 332 328 325 324 317 301 297 290 288 304 316 299
228 273 285 292 294 300 307 310 311 314 317 321 324 328 332 333 336 342 344 347 347 347 347 352 353 350 347 347 348 350 349 352 350 338 331 327 325 317 309 306 306 304 319 315
283 279 291 297 303 306 310 310 311 314 318 321 324 329 331 333 339 345 348 349 350 349 350 356 355 354 350 350 354 356 354 352 353 355 355 340 342 331 315 315 314 305 325 328
289 297 304 309 312 313 313 312 312 315 319 319 320 330 331 336 343 346 349 352 351 350 354 355 356 356 355 357 358 1 7 2 6 10 12 7 4 353 339 337 334 322 337 333
275 297 308 310 309 309 313 313 312 315 320 317 318 330 334 341 344 346 351 351 352 350 353 357 359 357 359 3 1 3 9 12 19 21 21 22 19 19 18 7 360 357 350 327
304 313 316 315 314 312 314 314 314 317 322 327 325 333 337 342 344 349 349 349 350 351 355 357 357 357 1 8 7 9 8 11 16 17 20 25 26 25 28 26 14 4 359 355
314 319 322 321 320 317 318 317 317 320 326 329 332 335 336 339 344 348 349 351 351 354 357 357 354 359 4 9 10 16 16 18 20 21 24 28 31 35 39 43 42 38 28 24
318 324 325 327 324 322 322 322 323 324 327 327 327 332 333 337 344 348 350 353 355 356 358 355 358 1 10 8 10 19 18 21 22 22 27 30 33 37 42 46 48 45 47 53
318 326 328 330 331 327 327 328 328 327 325 324 324 326 329 334 345 352 352 353 355 359 1 360 4 1 9 9 10 20 22 21 23 25 29 34 35 38 41 44 48 52 53 57
313 319 327 330 333 329 328 328 327 326 325 326 325 324 328 331 343 352 354 356 357 359 358 0 360 4 7 10 19 18 17 20 20 22 26 27 31 33 35 37 39 41 46 50
308 312 318 326 332 330 326 327 328 328 326 328 326 323 326 329 339 347 356 1 4 359 359 357 357 9 5 11 20 21 19 17 15 14 15 20 23 26 30 31 33 33 35 38
302 306 313 321 329 333 333 330 329 330 329 328 329 324 324 326 331 340 350 357 1 4 7 2 6 10 3 11 18 19 20 22 19 16 14 15 13 16 20 24 26 27 27 26
300 304 309 316 322 331 335 334 331 331 331 329 329 328 323 325 328 329 337 349 356 2 6 8 8 10 6 12 17 17 17 20 21 22 22 20 20 20 17 15 13 13 15 17
303 306 309 312 316 323 330 334 333 331 330 330 329 327 323 320 316 317 327 337 347 354 359 3 12 12 13 14 16 15 15 15 18 20 24 26 27 26 26 23 19 13 9 5
305 306 307 310 313 316 322 328 333 333 331 328 328 329 330 322 320 320 323 325 336 345 353 3 8 9 14 16 16 14 14 13 14 14 17 20 23 25 25 25 25 21 17 13
306 306 308 310 311 312 314 319 326 331 332 330 327 326 326 327 317 311 308 313 319 329 342 353 1 7 10 13 15 16 15 14 14 14 14 16 17 18 18 18 19 17 16 13
307 307 308 309 311 312 311 313 319 326 332 332 330 327 324 322 322 319 319 318 315 315 322 334 347 357 4 9 11 12 14 16 14 14 14 13 14 16 15 16 15 14 10 4
311 312 313 312 310 308 309 310 313 319 325 331 332 331 329 328 326 319 313 315 318 313 311 316 328 341 350 357 2 6 10 13 15 15 13 14 14 15 16 14 13 12 8 10
311 314 315 314 313 308 305 306 307 312 318 324 328 329 330 330 330 331 326 318 315 320 322 315 314 319 328 340 350 358 3 7 10 12 12 12 13 12 14 14 14 12 12 16
301 308 314 315 313 310 305 301 301 304 309 315 322 327 327 326 329 331 332 332 325 319 317 324 323 314 313 321 333 343 352 359 4 9 12 11 11 10 13 14 14 14 16 20